Regional Weather Roundup
Issued by NWS Midland/Odessa, TX

Skip options and go directly to product.
Home | Oldest Version | Previous Version | Current Version | All | Text Only | Save Text | Print | Product List | Glossary Off

Skip product version selection by date and time.   

376
ASUS44 KMAF 051210
RWRMAF
MIDLAND AREA WEATHER ROUNDUP
NATIONAL WEATHER SERVICE MIDLAND TX
700 AM CDT SAT SEP 05 2015

...IN SOUTHWEST TEXAS AND SOUTHEAST NEW MEXICO...

CITY           SKY/WX    TMP DP  RH WIND       PRES   REMARKS
ALPINE         CLEAR     66  58  73 SW5       30.13S
ANDREWS        FAIR      67  59  74 S5        30.04S
ARTESIA        CLEAR     66  54  63 NW5       30.05R
BIG SPRING     CLEAR     71  62  74 SE9       30.04R
CARLSBAD       CLEAR     71  53  52 SW5       30.01R
DRYDEN           N/A     77  70  79 VRB6      29.97R
FORT STOCKTON  CLEAR     73  67  81 SE10      30.01R
GUAD PASS      CLEAR     70  53  54 NE12      30.16R
HOBBS          CLEAR     68  57  68 S3        30.07R
MARFA          CLEAR     57  52  82 N3        30.12S
MIDLAND AIRPK  CLEAR     75  64  69 SE7       30.03R
MIDLAND INTL   CLEAR     74  64  71 SE8       30.02R
ODESSA         CLEAR     74  64  71 S12       30.02R
PECOS          CLEAR     74  63  69 E8        29.97R
PRESIDIO       FAIR      79  59  49 NE7       29.97R
SEMINOLE       CLEAR     65  54  67 CALM      30.06R
SNYDER         CLEAR     71  62  71 S6        30.02S
WINK           CLEAR     74  62  66 SE10      29.99R
$$
...OTHER STATIONS IN TEXAS...

CITY           SKY/WX    TMP DP  RH WIND       PRES   REMARKS
ABILENE        CLEAR     75  68  78 S9        30.00R
AMARILLO       CLEAR     67  57  70 S9        30.05S
AUSTIN         PTCLDY    77  75  93 SE6       29.99R
BROWNSVILLE    CLEAR     78  77  96 S5        29.94R
CORPUS CHRISTI PTCLDY    80  78  94 SE8       29.94R
DALLAS FTW     PTCLDY    79  72  79 S8        29.98R
DEL RIO        CLOUDY    79  73  82 E9        29.93R
EL PASO        MOCLDY    76  54  46 N7        30.03R
HOUSTON INT    PTCLDY    75  74  96 CALM      30.00R
LUBBOCK        PTCLDY    69  59  70 SE7       30.06R
SAN ANGELO     MOCLDY    76  69  79 S8        30.00R
SAN ANTONIO    MOCLDY    80  75  84 S9        29.99R
WACO           CLOUDY    79  73  82 S12       29.99R
WICHITA FALLS  NOT AVBL
$$
...OTHER LOCATIONS IN NEW MEXICO...

CITY           SKY/WX    TMP DP  RH WIND       PRES   REMARKS
ALAMAGORDO     PTCLDY    68  54  60 E7        30.05S
ALBUQUERQUE    CLOUDY    64  59  83 N6        30.16S
CANNON AFB     PTCLDY    62  54  74 SE3       30.09R
CLOVIS         PTCLDY    61  52  72 S7        30.10R
HOLLOMAN AFB   CLOUDY    68  56  64 N2        30.03R
ROSWELL        CLEAR     64  53  67 SW6       30.04R
RUIDOSO        PTCLDY    57  52  82 S5        30.25S
SANTA FE       CLOUDY    57  54  89 CALM      30.21R
TRUTH OR CONSE MOCLDY    63  57  81 CALM      30.10R
TUCUMCARI      PTCLDY    61  53  75 CALM      30.04S
$$

USA.gov is the U.S. government's official web portal to all federal, state and local government web resources and services.